Theta_e
328 331 335 336 338 340 341 341 340 340 338 334 333 334 335 334 331 331 334 336 337 337 336 336 337 337 338 337 338 337 336 337 336 333 330 329 332 334 334 334 334 335 335 335 336 335 337 337 338 339 339 339 339 338 337 338 337 337 335 331 325 323 320 320 330 336 337 338 339 338 338 339 339 340 339 336 335 334 332 333 334 333 330 328 331
325 331 335 336 338 339 340 341 340 340 339 337 335 333 332 332 332 331 331 333 335 335 336 337 337 338 338 337 337 336 335 334 335 336 334 333 333 334 334 334 334 336 336 336 336 335 337 337 337 338 339 339 338 337 337 337 337 336 334 330 326 324 321 317 323 331 335 336 337 338 336 337 338 339 338 337 336 335 335 335 332 330 327 324 325
324 331 335 335 338 339 340 341 340 340 340 339 339 337 335 333 332 331 330 331 331 332 333 334 335 337 337 338 338 337 336 334 333 333 334 333 334 334 334 334 335 337 337 338 337 337 337 337 337 337 338 337 336 335 335 335 335 335 333 329 326 325 324 320 319 324 330 333 334 334 334 335 337 339 338 336 336 335 334 332 329 327 326 324 321
325 330 333 336 337 339 339 340 340 340 340 339 340 339 339 337 334 333 332 331 330 331 332 334 336 338 338 339 339 338 338 337 336 335 334 333 333 334 334 335 336 337 338 338 337 337 338 337 337 336 335 335 333 333 334 333 334 333 331 329 327 326 325 324 322 321 323 328 331 332 333 337 339 339 339 336 334 333 332 330 329 327 326 325 323
325 329 333 337 337 338 339 339 339 340 340 339 340 339 339 339 336 335 334 333 331 331 332 333 337 339 339 339 339 338 338 338 337 337 336 334 334 334 335 335 336 337 338 338 338 338 337 337 336 335 334 332 331 332 332 332 332 332 331 330 328 328 326 326 325 324 323 323 325 329 333 337 339 340 338 336 334 334 333 332 331 329 326 325 325
325 328 333 337 337 337 338 338 338 340 340 339 339 339 339 339 337 336 336 335 332 333 333 334 337 338 339 339 339 339 338 338 337 337 337 336 336 336 336 336 336 337 338 338 338 337 336 336 335 333 332 331 331 332 332 331 332 331 331 330 329 328 327 327 326 326 326 324 322 325 332 335 337 339 339 337 336 335 335 334 332 330 328 325 324
326 327 333 336 336 335 337 338 337 339 338 338 339 338 338 338 337 337 337 335 334 335 336 337 338 338 339 339 339 339 338 338 337 337 336 336 336 336 336 336 337 337 337 338 337 336 335 335 334 333 331 330 331 331 331 331 331 331 330 330 329 329 328 328 327 327 326 327 325 324 328 333 335 337 339 338 337 337 337 336 333 332 329 325 322
326 328 332 334 335 334 336 336 336 337 336 337 337 337 338 337 337 337 336 336 336 337 339 339 339 339 339 339 339 338 338 337 336 335 334 334 335 335 335 335 336 336 336 336 335 334 334 334 333 332 330 330 330 329 329 329 329 328 328 328 327 327 327 327 326 326 325 325 327 325 324 329 334 335 337 339 338 337 338 336 334 331 328 327 323
327 329 330 333 334 333 335 334 336 336 335 336 335 336 337 337 337 337 336 336 337 338 339 339 339 339 338 338 338 337 337 336 334 334 333 333 333 333 333 334 334 334 334 334 334 332 332 333 332 331 330 329 328 326 326 325 325 324 324 323 322 321 320 320 320 320 320 320 323 327 325 325 330 333 335 337 337 336 336 336 334 330 329 330 327
328 330 330 332 332 333 333 334 336 334 335 335 335 336 335 336 336 336 337 337 338 338 339 339 338 338 338 337 337 337 336 335 333 332 331 331 331 331 331 332 332 332 331 331 331 330 329 330 330 329 327 326 324 322 321 319 318 317 315 313 311 309 308 308 308 308 310 313 316 323 326 324 325 329 333 336 336 335 334 334 334 333 333 333 330
328 329 329 331 332 332 332 334 335 332 334 335 335 335 335 336 336 336 337 337 337 338 338 338 338 338 337 336 336 335 335 333 332 331 329 329 329 330 330 330 330 330 329 330 329 328 327 326 325 323 322 319 317 315 313 311 308 306 304 302 301 300 300 300 300 301 302 305 310 318 324 326 324 327 332 334 334 334 333 333 334 335 336 334 333
328 330 329 331 330 331 331 333 333 332 335 335 335 334 335 336 336 336 336 338 337 337 337 337 336 336 335 334 334 333 333 332 330 329 327 327 328 328 329 328 328 328 328 328 327 326 324 321 319 315 312 309 307 305 303 302 300 299 299 298 299 299 299 299 299 299 300 302 307 314 319 324 325 328 332 333 332 333 333 334 335 336 337 336 336
329 330 330 332 330 330 329 330 332 333 334 334 335 335 335 336 336 337 337 337 336 336 337 336 335 334 333 332 332 331 331 330 328 327 326 327 326 326 327 327 326 326 326 326 325 324 320 315 311 307 303 301 299 299 299 299 299 299 299 298 299 299 299 299 299 299 300 301 305 311 317 321 325 328 331 332 331 331 332 333 335 336 336 336 337
329 330 331 331 330 330 329 330 332 332 333 333 334 334 335 335 335 336 336 336 335 335 334 334 333 333 332 331 330 330 330 328 326 325 325 326 324 325 326 325 324 324 325 324 323 319 313 307 303 300 299 299 299 299 299 299 299 299 298 299 298 299 299 299 300 300 300 301 304 309 315 320 323 327 329 330 330 330 331 332 333 334 335 335 335
329 330 331 332 331 330 330 331 331 331 332 332 333 333 334 334 334 334 334 334 334 334 333 332 332 331 331 330 329 329 328 326 324 324 323 323 323 323 323 323 323 323 321 319 316 311 305 301 299 299 299 299 299 299 299 299 299 299 298 298 298 298 298 299 299 300 301 302 303 308 314 319 322 325 327 328 328 328 329 330 331 332 333 333 332
330 330 331 331 331 331 331 331 332 331 331 332 332 331 332 332 333 333 333 333 332 331 331 332 330 329 329 328 327 327 326 324 323 323 322 322 322 319 316 317 318 317 314 311 308 303 300 299 299 299 299 299 299 299 299 299 299 299 299 298 298 298 298 298 298 298 300 302 303 305 311 316 320 323 325 326 326 326 327 328 329 330 331 331 330
330 331 331 331 331 332 331 331 331 331 330 331 330 330 330 330 331 331 331 331 329 330 331 330 328 328 327 326 326 325 324 323 323 322 322 321 319 313 309 309 309 308 306 304 301 299 299 299 299 299 299 299 299 299 299 299 299 299 299 299 298 298 298 298 298 298 298 300 304 305 309 313 318 322 323 324 325 325 326 326 326 327 328 329 328
329 330 330 331 331 330 330 329 329 330 329 329 329 329 329 330 330 329 330 329 328 329 330 328 327 327 326 325 325 324 323 322 322 321 321 319 314 308 305 304 304 303 301 299 298 298 299 298 299 298 299 299 298 299 298 298 299 299 299 299 299 298 298 298 297 297 297 298 301 305 308 312 316 320 321 322 323 323 324 324 324 324 325 325 326
328 328 328 329 328 328 327 326 326 327 327 327 328 327 328 329 329 329 329 329 329 329 328 326 326 325 325 324 324 323 321 321 321 320 319 316 309 304 303 303 303 302 299 298 298 298 298 298 298 298 298 298 298 298 298 298 298 298 298 298 298 298 298 297 297 297 297 297 298 302 307 312 315 318 320 321 321 322 322 321 320 321 322 323 323
327 327 327 327 327 326 325 325 324 325 326 326 326 326 328 329 329 329 329 329 329 328 327 325 325 324 324 324 323 322 319 318 319 317 315 311 305 302 303 303 302 299 298 298 298 298 298 298 298 298 298 298 299 298 298 298 298 298 297 297 297 297 297 297 297 297 297 297 297 298 303 308 313 317 319 320 320 319 318 318 319 319 319 320 320
327 327 327 327 326 326 325 325 324 324 325 325 326 325 327 329 328 328 328 328 328 327 326 325 324 323 323 323 322 320 316 316 315 313 310 307 303 302 302 301 299 298 297 297 297 298 297 298 298 298 298 298 299 298 298 298 298 297 297 297 297 296 296 296 297 296 297 297 297 297 299 303 309 315 317 318 318 316 315 315 316 317 317 317 317
326 327 327 327 326 326 325 325 324 324 324 325 325 325 327 328 326 327 328 327 327 327 325 324 323 323 322 322 320 317 313 312 311 308 306 303 301 300 301 300 298 297 297 297 297 297 297 298 298 298 298 298 298 298 298 297 297 297 297 297 296 296 296 296 296 296 296 296 297 297 298 300 304 311 316 317 316 314 314 314 314 315 315 315 314
324 326 326 326 326 325 325 325 324 324 324 324 325 325 325 326 326 326 327 327 326 326 325 324 322 322 322 320 317 314 310 309 307 305 303 302 301 300 301 300 298 297 297 297 297 297 297 298 298 299 299 298 298 298 297 297 297 296 296 296 296 296 296 296 296 296 296 296 296 296 297 298 300 308 314 316 316 314 314 315 316 316 316 316 316
322 323 324 325 326 325 325 324 324 323 323 323 324 324 324 325 324 325 325 325 325 325 324 323 322 321 320 318 315 312 309 307 305 304 303 301 300 300 300 299 298 297 297 297 297 298 298 298 299 299 299 299 298 298 297 297 297 296 296 296 296 296 296 296 296 296 296 295 295 295 296 297 298 304 311 315 314 313 314 316 317 317 318 318 318
319 320 323 324 325 325 325 324 324 323 323 322 322 323 323 323 323 323 323 323 324 324 324 323 321 320 319 316 313 310 307 306 304 303 301 300 299 299 298 298 298 298 298 298 298 298 298 298 299 299 299 298 298 298 297 297 296 296 296 296 296 295 295 295 295 295 295 295 295 295 295 295 296 300 308 313 313 313 314 316 317 317 317 317 317
317 319 321 321 323 324 325 325 324 323 323 322 322 321 322 322 322 322 322 323 323 323 322 321 320 319 317 315 311 309 307 305 303 301 300 299 298 298 298 298 297 297 297 297 297 297 298 298 299 299 298 298 297 297 296 296 296 296 295 295 295 295 295 295 295 295 295 295 295 295 295 295 295 297 305 311 312 314 315 316 316 316 316 317 317
316 317 317 319 321 323 324 324 324 323 323 322 321 321 321 321 321 321 321 321 322 322 320 318 318 317 315 312 309 307 305 303 301 300 299 298 297 297 297 297 297 297 297 296 297 297 298 298 298 298 298 297 296 296 296 295 295 295 295 295 294 294 294 294 294 294 294 294 294 295 294 295 295 296 303 310 312 314 316 315 316 316 316 316 316
315 315 316 317 319 321 323 323 324 324 323 322 321 321 320 319 320 320 320 320 320 320 319 317 316 315 312 309 307 305 303 301 300 298 298 297 297 297 297 297 297 296 296 296 296 297 298 298 298 297 297 296 296 296 295 295 295 294 294 294 294 294 294 294 294 294 293 294 294 294 294 294 295 296 301 308 312 314 315 315 315 315 315 316 316
313 315 315 316 317 318 320 322 323 323 323 322 321 321 319 319 318 318 318 318 318 318 317 316 314 311 309 307 306 305 302 300 298 297 297 296 296 296 296 296 296 296 296 296 296 297 298 298 297 297 296 296 295 295 295 294 294 294 294 294 294 293 294 294 293 293 293 293 294 294 294 294 294 296 300 305 310 312 314 314 314 314 314 315 315
312 313 314 315 316 316 318 320 321 322 322 321 321 320 319 318 318 317 316 316 316 315 315 313 310 308 306 305 304 303 301 299 297 297 296 296 296 295 296 296 296 296 296 296 296 297 297 298 297 296 296 295 295 294 294 294 294 294 294 293 293 293 293 293 293 293 293 293 294 294 294 295 295 296 299 303 308 310 311 312 312 312 313 314 314
311 311 312 313 314 315 316 317 319 321 320 321 320 319 319 317 317 316 315 315 314 313 312 309 307 305 303 303 303 302 301 298 297 296 296 296 296 295 295 295 295 295 295 296 296 296 297 297 297 296 295 295 294 294 294 293 293 293 293 293 293 293 293 293 293 293 293 294 294 294 295 295 295 296 298 303 307 308 309 310 310 311 312 313 313
310 311 311 312 312 314 315 316 317 318 319 320 320 319 318 317 316 315 315 314 313 311 310 307 305 303 301 301 300 300 299 298 297 296 296 296 296 296 295 295 295 295 295 295 296 296 296 296 296 295 294 294 294 293 293 293 293 293 293 293 293 293 293 293 293 293 294 294 294 294 295 295 295 296 297 300 303 305 306 306 307 309 310 310 311
310 311 310 309 310 312 312 314 315 316 317 318 318 318 317 317 316 315 314 314 313 311 308 306 303 301 301 300 299 299 298 297 296 296 296 296 296 296 296 295 295 295 295 295 295 296 296 296 295 294 293 293 293 293 293 292 293 293 293 293 293 293 293 293 293 294 294 294 295 295 295 295 295 295 295 296 297 299 300 300 301 305 308 309 309
309 309 308 309 309 309 310 312 313 314 315 316 317 317 316 316 315 315 314 313 313 311 308 305 302 301 300 299 298 298 297 296 296 296 296 296 296 295 296 295 295 295 294 295 295 295 296 295 294 293 293 292 292 292 292 292 292 293 293 293 293 292 292 292 293 294 294 295 295 295 295 295 294 294 294 293 294 294 294 294 295 298 304 307 307
308 308 309 309 309 308 308 310 311 312 313 314 315 315 316 315 315 314 314 313 312 311 308 305 303 301 300 299 298 297 296 296 296 296 296 296 295 295 295 295 295 294 294 294 294 295 295 294 293 293 292 292 292 292 291 292 293 293 293 293 292 292 292 292 293 293 293 294 295 294 294 293 293 293 293 293 293 293 293 292 292 292 296 301 303
307 308 308 308 308 307 307 308 309 311 312 313 314 314 314 314 314 313 313 313 311 311 309 306 303 301 300 299 298 297 296 296 295 296 296 296 295 295 295 295 294 294 294 294 294 294 294 293 293 292 292 292 291 291 291 292 293 293 293 293 292 292 292 292 292 292 292 292 293 293 292 292 292 293 293 293 293 293 292 291 291 290 292 295 298
307 307 308 308 308 307 307 307 307 309 310 311 312 312 313 312 312 311 311 311 310 310 309 306 304 301 300 299 298 297 296 295 296 295 296 296 295 295 295 295 294 294 294 294 294 294 294 293 293 292 292 292 291 291 292 292 293 293 293 292 292 291 292 292 292 291 291 292 292 291 291 291 291 291 292 292 292 291 291 290 290 290 291 292 293
307 307 307 307 308 307 307 307 306 307 308 309 310 311 311 310 310 309 309 309 310 309 308 306 304 302 300 298 297 296 296 295 295 295 295 295 295 295 295 295 294 293 293 293 293 293 293 293 292 292 291 291 291 292 292 292 292 293 292 292 291 291 292 292 291 291 291 291 291 290 290 290 290 290 290 290 290 290 289 289 289 290 290 290 291
308 307 306 307 307 307 306 306 306 305 306 307 308 309 309 308 308 308 307 308 308 307 307 306 304 302 300 298 297 296 296 295 295 295 295 295 295 295 295 295 294 293 293 293 293 293 293 292 292 291 291 291 291 291 291 292 292 292 292 291 291 291 291 291 290 290 291 291 291 290 289 289 289 289 289 289 289 289 288 289 289 289 289 289 290
308 307 306 306 306 306 306 305 305 304 304 305 306 307 307 306 306 305 305 306 306 306 306 306 304 302 300 298 297 296 295 295 295 295 295 296 296 295 295 295 294 293 293 293 293 293 293 292 291 291 291 290 290 291 291 292 292 291 290 290 290 290 290 289 290 290 290 290 290 290 289 289 289 289 288 288 288 288 288 288 288 288 289 289 289
307 306 305 305 305 305 305 304 304 304 303 304 305 306 306 305 304 304 305 305 304 304 304 304 303 302 300 298 297 296 295 295 295 295 295 296 296 296 295 295 294 293 293 293 293 293 293 292 291 290 290 291 290 290 291 292 292 291 290 290 289 289 289 289 289 289 289 289 289 289 289 288 289 288 288 288 288 288 288 287 287 288 288 288 289
307 307 306 306 305 305 304 304 304 303 303 303 304 304 305 305 304 304 304 303 302 302 302 303 302 301 299 297 296 295 295 295 295 295 296 296 297 296 296 295 294 293 292 292 293 292 292 291 290 289 290 290 291 291 291 292 292 291 290 290 289 289 289 289 289 288 288 288 288 288 288 288 288 288 288 287 288 288 287 287 287 287 288 288 289
307 307 306 305 304 304 304 304 303 303 303 303 303 303 304 304 303 303 302 301 300 301 300 300 299 298 297 296 295 295 295 295 295 295 296 297 297 297 296 296 295 293 292 292 292 292 291 291 290 290 290 290 291 291 291 292 292 292 292 293 292 291 291 290 289 289 288 288 287 287 288 288 288 287 287 287 288 288 287 287 287 287 287 288 288
307 306 306 304 303 303 304 303 303 303 303 302 302 302 303 302 302 301 301 300 299 299 298 297 297 297 296 296 295 295 294 295 295 295 296 296 297 297 297 296 295 293 293 292 292 291 291 291 290 290 290 290 291 290 291 292 292 293 294 294 291 292 295 293 289 289 288 288 287 287 288 288 287 287 287 287 287 287 287 287 287 287 287 288 288
307 307 306 305 304 304 304 304 303 303 302 302 302 301 301 301 300 300 299 299 298 297 297 296 296 295 295 295 295 294 294 295 295 295 296 296 296 296 296 296 295 293 292 292 292 292 291 291 290 290 290 292 292 291 291 291 292 294 294 295 294 295 297 293 289 290 288 288 288 287 288 288 288 287 287 287 287 287 287 287 287 286 287 287 287
305 306 305 304 304 303 303 303 302 302 302 301 301 301 301 300 300 299 298 297 297 296 296 296 295 295 295 295 295 295 294 295 295 295 295 296 296 296 296 295 294 293 292 292 292 291 291 291 291 290 290 292 293 292 291 291 291 293 293 295 297 297 296 291 290 292 289 287 287 287 288 288 288 287 287 286 286 287 287 287 286 286 286 287 287
302 303 303 303 302 302 302 302 302 301 301 301 300 300 300 300 300 299 298 298 297 296 297 296 296 295 295 295 295 295 294 294 295 295 295 295 295 295 295 295 295 294 293 292 291 291 291 291 291 291 290 291 292 292 292 291 291 291 292 293 293 293 294 292 292 293 291 289 287 286 287 287 287 287 286 286 286 287 287 286 286 286 286 286 286
300 301 301 302 301 301 301 301 302 301 301 300 300 300 300 299 299 299 299 298 298 298 297 297 296 296 295 295 294 294 294 294 294 294 295 295 295 295 295 295 295 294 293 292 291 291 291 291 290 290 290 290 292 293 293 293 292 291 290 290 291 292 292 292 292 293 295 294 289 286 286 286 287 287 286 286 286 287 287 286 286 286 286 286 286
299 300 300 301 301 300 300 301 301 301 300 300 300 300 300 299 299 299 298 298 298 298 298 297 297 296 295 295 294 294 294 294 294 294 294 294 294 294 294 295 294 295 294 292 291 291 291 291 290 290 290 290 291 292 293 294 294 294 292 290 290 290 290 290 290 290 292 294 292 290 287 286 286 287 286 285 286 286 286 286 286 286 286 286 286
298 299 299 300 300 299 300 300 300 300 300 300 299 299 299 299 298 298 298 298 298 298 297 297 297 296 295 295 294 294 294 293 293 293 294 294 294 294 294 294 294 295 295 293 291 291 291 290 291 291 290 290 290 291 292 294 294 294 294 293 291 289 288 288 288 288 289 291 292 291 288 287 288 287 286 285 285 286 286 286 286 286 286 286 286
298 298 299 299 299 299 299 299 300 299 299 299 299 299 299 298 298 298 298 298 297 297 297 297 296 296 295 295 295 294 294 293 293 293 293 293 293 293 294 294 294 294 295 294 292 291 291 291 290 290 290 290 290 290 291 292 294 293 293 294 293 293 291 291 289 288 289 289 291 292 288 286 287 286 285 285 285 285 286 286 286 286 285 285 285
Wind_Speed
26 25 26 25 24 22 21 20 20 19 18 18 17 16 15 15 15 14 13 11 10 10 10 10 10 9 8 7 6 5 5 5 6 6 7 7 7 6 6 6 6 5 4 4 4 4 4 4 4 5 6 7 7 7 8 8 8 8 8 8 10 10 10 11 11 12 12 13 12 11 11 11 10 9 9 10 10 11 11 11 11 10 10 10 9
31 28 27 27 25 23 23 20 20 19 18 17 16 16 15 15 14 14 13 12 11 11 10 9 9 8 8 7 6 5 5 5 6 6 6 7 6 6 6 5 4 4 4 3 3 4 4 4 4 5 7 7 6 6 7 6 6 7 7 7 10 10 9 10 10 10 10 10 10 9 9 9 10 9 9 10 10 10 10 9 9 9 9 8 7
31 30 28 28 26 24 23 21 20 20 19 17 16 16 15 15 14 13 13 12 11 11 10 9 9 8 7 7 6 6 5 5 5 5 6 6 6 6 6 6 5 5 5 5 4 5 5 5 5 6 6 5 5 5 5 4 4 4 5 6 8 9 9 9 9 9 8 8 8 7 7 8 10 10 10 10 10 9 8 7 8 9 8 7 6
31 32 29 29 27 24 23 22 21 20 20 18 17 16 15 14 14 14 13 12 11 11 10 9 9 8 8 8 7 7 6 6 6 6 6 6 6 6 6 6 6 6 6 6 5 6 6 6 6 5 5 4 4 3 3 2 2 2 3 5 6 7 7 7 7 7 6 6 5 5 7 8 10 10 10 10 10 9 8 8 8 8 8 7 7
32 32 30 30 27 26 24 23 21 20 19 19 18 17 16 15 15 14 13 12 11 11 10 10 9 9 9 9 8 8 8 8 7 7 7 7 7 6 6 6 6 6 6 6 6 7 6 6 6 6 5 4 2 1 0 1 1 1 2 3 3 3 3 4 4 4 5 5 4 3 6 7 9 10 9 9 8 8 8 7 6 6 7 7 7
32 33 31 32 28 27 26 24 22 20 19 19 18 17 16 15 15 15 14 13 12 12 11 11 10 10 10 10 10 10 9 9 9 8 8 8 7 6 6 6 7 7 6 7 7 7 6 6 5 5 4 3 1 0 1 2 2 2 1 1 2 3 3 2 2 1 2 3 3 3 4 5 7 9 8 7 7 6 7 6 5 5 6 6 6
31 33 31 32 30 28 26 25 23 20 20 20 18 18 17 17 16 16 15 14 14 13 13 12 11 12 11 11 11 11 11 10 9 8 8 8 7 6 6 6 6 7 7 7 7 6 6 5 5 4 3 1 1 1 2 2 3 4 4 4 5 5 6 5 4 3 2 1 1 2 3 4 5 6 8 6 5 5 5 3 2 4 5 5 5
31 32 31 31 30 28 27 24 22 20 20 19 18 18 18 17 17 17 16 16 15 15 14 13 13 13 13 12 12 12 11 9 9 8 8 7 7 7 6 6 6 7 7 7 5 5 5 6 6 4 3 2 3 3 4 4 5 6 6 7 7 8 7 7 7 6 5 3 2 1 2 3 4 4 6 7 3 3 3 2 1 2 4 4 4
32 32 31 31 29 28 26 24 22 20 19 19 18 18 18 17 18 18 17 17 16 15 15 14 13 13 14 13 12 11 10 9 9 8 7 7 7 7 6 6 6 6 7 6 5 3 3 6 6 5 4 4 4 5 5 6 7 7 8 8 8 8 8 8 8 7 7 5 4 2 2 3 3 3 3 5 3 1 1 2 1 1 2 4 4
32 32 31 30 28 27 25 24 21 20 19 18 18 18 18 17 18 18 17 18 17 16 15 15 14 13 12 12 11 10 9 8 9 9 8 7 7 8 7 8 8 7 7 6 5 3 3 5 6 5 5 5 6 5 6 6 7 8 8 8 8 8 7 7 7 6 6 5 5 4 4 4 4 4 3 4 3 2 0 1 0 1 2 3 4
31 32 31 29 28 27 25 23 21 21 19 19 19 18 18 17 17 18 17 17 16 15 14 14 13 12 12 11 10 9 8 7 8 10 8 8 8 9 10 9 9 8 7 7 6 4 3 4 5 5 6 5 5 5 6 6 6 6 6 6 6 6 5 5 5 4 3 3 4 5 5 4 4 5 5 4 2 2 2 1 0 1 2 2 3
30 31 30 29 28 27 26 24 22 21 20 19 19 19 18 18 17 17 17 15 14 14 13 13 12 12 12 11 11 10 9 9 9 10 9 9 9 9 10 9 9 8 8 8 7 4 4 4 4 4 4 4 4 4 4 4 4 4 4 4 4 4 4 3 3 2 1 2 3 5 5 5 5 5 6 4 2 2 3 3 2 2 2 2 1
30 31 30 29 28 27 27 25 24 22 21 20 20 20 20 19 19 17 16 16 15 15 14 13 14 13 12 12 12 11 11 11 10 10 10 9 9 10 11 10 9 9 8 8 8 7 5 4 4 4 3 2 1 1 1 1 2 3 3 4 4 4 4 3 3 2 1 2 3 5 6 6 6 5 5 3 3 3 4 4 3 2 2 2 2
28 30 30 29 28 27 27 26 26 24 22 21 21 21 20 20 20 18 17 17 17 16 15 15 15 14 14 14 13 13 13 13 12 11 10 10 9 10 11 10 9 9 9 10 10 7 6 5 4 2 1 1 1 2 2 2 3 3 4 4 5 5 5 4 3 2 2 2 4 5 7 7 7 6 5 4 3 3 3 4 5 3 2 4 5
27 29 30 29 28 28 27 27 27 25 24 24 23 21 21 21 20 19 18 18 18 18 17 17 17 15 15 15 14 14 15 14 13 12 12 11 11 10 12 12 10 10 11 11 9 8 7 4 3 3 3 3 3 3 3 3 4 4 5 5 5 5 5 5 4 3 2 3 4 5 7 7 7 6 5 4 3 3 2 3 3 3 4 3 4
26 28 30 30 29 28 28 28 28 27 25 25 24 23 22 22 21 20 20 20 20 19 18 18 17 17 17 16 15 15 15 15 14 13 13 12 12 13 14 15 13 13 13 11 9 8 6 5 4 4 3 3 3 3 3 4 5 5 6 6 6 6 6 5 5 4 2 2 3 5 6 7 7 6 5 4 3 2 3 2 2 3 4 3 1
27 28 29 30 30 29 29 29 28 28 26 25 25 25 24 23 23 23 22 21 21 21 21 20 19 19 19 17 17 18 17 16 15 14 14 14 14 15 15 16 15 14 12 11 10 9 7 6 6 5 4 3 3 3 3 4 5 5 6 6 6 6 6 6 5 4 3 1 2 4 5 6 6 5 5 4 3 3 3 2 2 3 4 5 3
27 29 30 30 31 30 30 29 29 29 28 27 26 26 25 24 24 24 23 23 23 22 22 22 20 20 20 19 20 20 19 17 16 16 15 15 16 16 15 15 14 13 13 12 11 10 9 8 7 6 5 4 3 3 2 2 3 4 4 5 6 6 6 6 5 4 3 1 1 3 5 6 6 4 4 4 3 3 3 1 2 3 4 5 5
28 29 30 30 31 31 31 31 30 30 30 29 28 27 26 26 26 25 25 25 24 24 23 23 22 21 21 21 22 22 20 18 17 16 16 15 16 16 15 14 14 14 14 13 11 11 10 9 8 6 5 4 3 2 1 1 1 2 2 3 4 5 5 5 5 4 3 1 1 3 5 7 6 4 4 4 3 3 2 1 2 3 4 5 5
28 29 31 31 31 32 32 32 32 31 31 30 29 28 27 28 27 26 26 26 26 25 25 25 24 23 23 23 23 23 20 19 19 18 18 17 17 16 15 16 15 15 14 13 12 11 10 9 8 6 5 4 3 2 1 1 1 2 2 3 3 4 4 4 4 4 3 1 1 2 4 6 6 4 4 3 3 2 1 2 2 3 4 4 5
29 31 32 32 32 33 33 33 33 33 32 31 30 29 28 28 28 27 27 27 27 26 27 26 25 25 25 25 25 24 22 21 21 20 20 19 18 17 17 17 16 15 14 13 12 11 10 9 7 6 4 3 2 2 2 2 2 2 3 3 3 4 4 4 4 3 3 2 2 2 3 5 5 4 4 4 4 2 2 2 2 2 3 3 4
30 32 34 34 34 34 34 34 34 34 33 32 31 30 30 29 29 29 29 29 28 28 29 28 27 27 27 27 26 25 24 22 22 22 21 19 19 19 18 17 17 16 15 14 12 11 10 8 7 6 4 4 3 3 2 2 2 3 3 4 4 4 4 4 4 4 3 3 2 2 2 4 5 4 5 5 5 4 3 3 2 2 3 3 3
31 35 37 37 36 36 36 36 35 35 34 33 33 31 31 31 30 30 31 30 30 30 31 30 29 29 30 29 27 26 25 23 23 22 21 20 20 20 19 19 18 17 16 14 13 12 10 9 7 6 5 5 4 4 3 3 3 3 4 4 4 5 5 5 5 5 4 4 3 2 2 3 4 4 5 6 6 6 6 6 6 6 6 6 6
36 38 37 38 39 38 38 37 36 36 35 35 34 33 33 33 32 32 32 32 32 32 32 32 31 31 31 29 28 26 25 24 24 23 22 22 22 22 21 21 20 18 17 15 14 13 11 10 9 8 7 6 6 5 5 5 4 4 4 5 5 5 5 6 6 5 5 5 4 3 3 3 4 4 5 6 6 6 6 7 8 8 9 9 9
34 34 35 38 40 40 40 39 38 37 37 36 35 35 34 34 34 34 34 33 33 34 34 34 33 32 31 30 28 27 26 26 26 25 24 24 24 24 23 22 20 19 17 15 14 13 12 11 10 10 9 8 7 7 6 6 5 5 5 5 4 4 5 5 5 5 5 5 5 4 4 3 3 4 4 5 6 6 7 8 8 8 9 9 9
29 32 37 40 41 42 42 40 40 39 39 38 37 36 36 36 36 36 36 35 35 36 36 35 33 32 31 30 29 28 27 27 27 26 26 26 26 25 24 22 20 19 17 15 14 13 13 12 11 11 10 9 9 8 7 6 6 5 5 4 4 4 4 4 4 5 5 5 5 4 4 3 3 4 4 6 6 7 8 9 9 9 9 9 9
32 35 38 39 40 42 43 42 42 41 41 39 38 37 37 37 37 37 37 38 37 37 37 36 34 33 32 31 30 30 29 29 29 28 28 28 27 25 24 22 21 19 18 17 16 15 14 13 12 11 11 10 9 8 8 7 6 5 4 4 3 3 3 3 4 4 4 4 4 3 3 3 4 4 5 7 7 9 9 9 10 10 10 10 10
34 38 38 37 40 42 44 44 44 44 43 41 40 39 38 38 38 38 39 39 39 39 38 36 35 34 33 33 31 30 30 30 30 30 29 29 28 26 25 23 22 20 20 19 17 16 15 14 13 12 11 10 9 9 8 7 6 5 4 3 3 2 2 3 4 4 4 3 3 2 2 3 4 6 7 7 9 10 10 10 10 10 10 11 11
37 41 39 39 41 41 43 45 46 46 45 43 42 41 41 40 40 40 40 40 40 40 38 37 36 36 35 34 33 32 31 31 31 31 30 30 29 27 26 25 23 22 21 20 18 17 16 15 13 12 11 10 10 9 9 8 7 5 4 3 3 2 2 3 4 4 4 3 2 0 1 3 5 7 8 8 9 11 11 11 10 10 10 11 11
42 41 39 42 42 41 43 46 47 47 46 45 44 44 43 43 43 43 42 42 41 40 39 38 37 37 36 35 34 33 32 32 32 31 31 31 29 27 26 25 25 24 22 21 19 18 16 15 14 13 12 11 11 10 9 9 7 6 5 4 3 2 3 3 4 4 3 2 1 2 3 4 6 7 9 10 10 11 12 12 11 10 10 11 11
41 38 41 43 41 41 44 45 47 48 47 47 47 46 46 45 45 44 44 43 43 42 41 40 39 38 37 36 35 34 33 33 32 32 32 31 30 28 27 27 26 25 23 21 20 19 17 16 15 14 13 12 12 11 10 9 7 6 5 3 3 2 3 3 3 3 2 1 2 4 6 7 7 8 10 11 11 12 13 14 13 13 12 11 11
39 41 44 41 40 43 44 44 45 47 48 49 49 48 48 47 46 46 46 45 44 44 43 42 41 39 38 37 36 35 34 34 33 33 32 31 31 30 28 28 27 25 24 23 22 21 19 18 17 16 15 14 13 12 11 9 7 6 5 3 3 2 2 3 3 1 0 2 4 6 8 9 10 10 11 12 12 12 12 12 13 14 14 13 12
40 42 39 37 40 43 43 43 43 46 48 50 50 50 50 49 48 48 47 46 46 46 45 44 42 41 39 38 37 36 36 35 35 34 33 32 31 30 30 29 27 26 25 24 23 22 21 20 19 18 17 16 15 13 12 10 8 6 5 4 2 2 2 1 1 1 2 4 6 8 10 11 11 11 11 12 12 11 11 11 12 13 15 14 13
37 35 35 37 40 40 41 43 44 46 48 49 50 51 51 50 50 49 48 48 48 48 47 45 44 42 41 40 38 38 37 37 36 35 34 33 32 31 31 30 29 28 27 26 25 24 22 21 20 19 18 17 15 13 12 11 9 7 5 3 2 2 1 1 2 3 5 7 9 10 11 11 11 11 11 11 11 11 10 10 11 12 14 14 13
34 33 36 38 38 38 40 42 44 47 48 49 51 51 51 50 50 50 50 49 49 49 48 47 46 44 43 41 40 39 39 38 38 37 36 34 33 33 32 31 30 30 29 27 27 25 23 22 21 20 19 18 16 14 13 11 9 6 4 3 2 2 3 4 5 6 7 9 11 11 11 11 11 11 11 11 11 10 10 9 9 10 11 12 11
33 34 37 36 36 38 39 41 43 46 48 50 50 50 50 49 49 49 50 50 49 49 49 49 47 46 44 43 42 41 40 40 39 38 37 36 35 34 33 33 32 31 30 29 28 26 24 23 22 20 19 19 17 15 13 11 9 7 5 3 3 4 6 7 7 8 9 11 12 12 12 12 11 11 11 11 10 9 8 8 8 9 10 10 9
33 34 35 35 37 38 39 41 43 46 48 49 49 49 48 48 48 47 47 48 49 50 49 49 48 47 46 45 44 43 42 41 40 39 38 37 36 35 34 34 34 33 32 30 29 27 26 24 23 22 20 19 18 16 14 11 9 7 5 4 5 7 8 9 9 9 11 13 13 13 12 12 11 11 10 10 9 8 7 7 7 8 9 9 9
32 32 34 35 37 38 39 41 43 44 44 46 47 47 46 45 44 45 45 46 48 49 49 49 49 48 47 46 45 44 43 42 42 41 39 38 37 36 35 35 35 34 33 32 30 29 27 26 25 23 22 20 19 17 15 12 9 7 6 7 8 9 10 11 11 11 13 14 14 12 12 11 10 10 9 9 8 8 7 7 7 7 8 8 8
31 31 32 34 36 37 38 40 41 41 42 43 43 42 41 41 42 42 43 45 47 48 48 50 50 49 49 47 46 45 45 44 43 42 41 40 38 37 37 37 37 36 34 33 32 31 29 28 26 25 23 21 19 17 15 12 10 8 8 10 10 12 13 13 13 13 14 14 13 12 11 10 9 8 8 8 7 8 8 7 7 7 7 7 7
28 29 31 32 34 35 36 38 39 40 39 39 38 39 39 39 39 39 42 46 47 48 49 50 51 51 51 49 48 46 46 45 45 44 42 41 40 39 38 38 37 37 36 35 34 34 32 30 28 26 25 22 20 18 15 14 13 11 12 14 14 14 15 14 14 14 13 13 12 11 10 9 8 8 7 6 7 7 8 7 7 8 8 8 8
24 27 29 32 34 35 36 38 38 39 39 39 40 41 42 41 40 43 48 49 48 48 49 51 51 52 51 50 49 48 47 47 46 45 44 43 42 40 39 38 38 38 38 37 36 34 32 31 29 27 25 24 22 19 17 17 15 13 12 14 15 16 16 15 14 12 11 11 11 11 10 9 8 7 7 6 6 6 5 6 7 8 9 9 10
23 26 29 32 33 35 37 37 36 38 41 42 42 44 46 45 44 46 48 46 46 48 50 51 51 50 50 50 49 49 48 48 47 46 46 45 43 41 40 39 39 39 38 36 35 34 33 32 30 28 26 24 22 21 21 18 12 12 12 10 8 10 12 12 11 10 10 11 12 11 10 9 8 8 6 5 4 4 4 5 7 8 9 11 13
24 26 28 30 30 33 35 35 36 39 41 43 43 44 44 43 41 39 38 37 39 44 45 45 46 47 47 48 48 49 49 48 48 47 46 45 44 42 40 39 39 40 39 38 37 36 35 34 32 30 28 24 21 21 24 18 13 14 13 6 2 4 4 5 6 7 9 12 12 10 9 8 8 7 5 4 3 3 4 6 7 8 10 12 14
23 24 26 27 28 31 34 35 36 38 40 42 42 41 38 37 35 32 31 31 32 35 36 36 40 43 44 46 48 49 49 48 48 47 46 45 44 43 42 41 41 41 41 40 40 39 38 36 34 32 30 26 21 21 24 21 17 15 8 2 1 2 2 4 6 7 10 11 10 8 6 5 6 5 3 3 4 5 6 7 8 9 10 12 14
22 24 24 25 28 30 32 35 36 37 39 40 40 38 35 33 32 26 25 27 26 28 34 36 38 41 43 46 47 48 48 48 48 47 47 46 45 45 43 43 43 42 42 42 42 41 40 38 37 35 33 30 25 23 23 22 21 17 9 4 2 1 1 3 5 5 10 12 9 8 5 2 2 3 2 2 4 6 7 8 10 10 10 12 13
20 21 22 23 25 27 29 31 33 35 36 37 38 38 37 36 35 31 28 28 27 31 39 40 39 42 44 45 46 47 48 48 48 48 47 46 46 45 44 44 44 44 43 43 42 42 41 39 38 37 35 31 27 24 24 23 22 19 14 10 6 4 4 6 4 1 6 10 9 9 7 5 3 2 3 2 4 7 8 10 12 11 10 11 12
19 19 20 20 21 23 25 28 31 33 34 35 37 38 38 38 39 38 35 33 32 34 36 33 34 39 40 41 44 46 47 48 47 47 46 46 46 45 44 44 44 44 43 43 43 42 41 40 39 38 36 32 28 26 26 26 22 18 17 14 10 8 9 10 5 2 3 5 8 9 8 7 4 1 3 3 5 9 10 12 12 10 10 11 11
20 19 18 17 17 19 21 24 28 30 32 33 36 38 38 38 38 37 34 35 34 31 30 29 31 35 36 37 41 43 45 46 46 46 46 46 45 45 44 44 43 43 43 44 44 43 42 41 40 39 38 35 30 27 28 28 25 20 18 15 11 11 12 12 9 6 3 1 4 6 7 7 4 4 4 3 7 11 10 12 12 10 11 11 11
24 23 20 15 13 14 17 20 24 28 30 31 34 36 37 36 36 35 33 33 31 28 26 27 29 31 34 35 37 40 42 44 45 45 46 46 46 45 45 44 43 43 43 43 43 43 42 42 42 41 40 38 34 29 28 29 28 24 21 18 14 12 11 10 10 9 3 2 3 3 5 6 4 7 6 4 8 12 11 12 12 11 12 11 11
27 25 23 18 14 11 12 15 19 23 26 28 31 34 35 34 34 34 32 29 28 26 23 25 28 30 32 33 35 38 40 42 44 45 45 46 46 45 45 44 44 43 43 43 44 44 44 43 43 42 41 40 36 31 29 29 28 26 24 23 20 16 10 6 9 10 5 2 1 1 6 7 5 7 6 4 9 12 12 14 13 12 13 12 11
31 27 23 20 16 12 10 11 14 17 20 24 27 30 32 33 33 33 33 30 28 28 26 27 29 31 33 34 35 36 38 41 42 43 44 45 45 45 44 44 44 44 44 44 45 45 45 45 44 43 42 41 38 34 31 29 29 27 25 25 23 20 16 11 15 17 11 5 3 1 5 8 5 5 7 6 9 12 13 14 14 13 13 13 12
Wind_Direction
186 179 175 173 175 173 179 181 179 181 181 182 181 181 178 178 177 176 173 171 170 168 167 163 159 156 157 153 155 156 150 145 138 140 149 158 155 146 138 131 122 113 103 104 108 108 109 107 107 104 95 88 84 80 78 81 82 78 75 71 76 77 78 83 85 87 85 84 88 99 105 96 88 91 93 88 88 86 81 77 71 67 61 55 53
183 178 176 174 175 175 178 180 182 182 182 182 181 183 179 180 181 181 180 179 179 178 176 172 168 165 164 159 163 169 173 172 164 161 161 168 167 158 151 150 146 133 128 124 127 128 129 130 129 122 112 106 106 103 99 99 98 86 71 66 75 75 75 78 81 87 89 90 89 94 100 98 93 96 100 93 91 87 83 78 70 65 57 51 55
178 177 177 175 177 177 178 179 183 183 184 185 184 186 183 184 185 186 186 186 185 184 181 175 175 173 167 164 167 172 175 181 184 181 179 178 171 169 166 169 164 147 140 140 150 149 152 159 158 147 138 139 138 129 124 124 112 96 77 71 80 78 73 72 72 77 85 91 87 89 94 96 97 98 100 93 88 85 78 74 68 63 58 53 52
179 178 176 178 179 176 178 181 184 184 186 188 188 190 188 189 190 191 189 191 188 185 183 176 177 176 172 171 172 174 171 169 170 169 175 174 167 175 173 170 163 151 148 151 159 155 158 164 171 181 181 174 163 154 142 137 123 103 83 76 82 78 69 66 66 68 71 83 87 84 87 93 98 99 102 98 92 85 76 72 68 61 60 62 55
180 180 177 179 180 178 179 183 186 186 189 190 191 193 193 194 196 199 196 194 191 188 186 181 181 179 179 179 177 175 173 164 159 158 162 164 160 168 170 167 161 154 153 154 154 155 159 148 156 186 196 188 171 176 132 10 4 50 71 75 74 59 46 49 55 62 62 66 76 85 90 92 96 95 101 111 102 88 77 64 62 57 53 58 56
182 181 178 181 182 180 180 183 186 186 190 192 193 195 196 199 200 202 202 199 196 193 190 187 185 183 183 183 181 177 174 166 159 155 154 157 152 155 161 161 160 157 157 152 149 159 159 137 150 188 194 193 199 280 318 330 324 317 317 326 335 338 333 339 358 16 44 58 66 85 101 100 100 88 87 112 118 99 78 54 43 44 39 40 44
184 182 180 182 185 183 181 183 185 186 189 192 193 196 198 200 201 203 202 201 199 196 194 191 189 186 184 182 182 179 173 166 163 164 162 158 151 158 158 153 156 154 153 145 149 161 159 165 186 205 207 231 265 285 301 303 291 289 290 293 300 303 305 302 298 297 301 323 72 88 110 119 118 95 72 81 129 130 100 87 41 26 20 25 30
184 184 183 184 186 184 183 182 184 187 189 190 193 197 199 201 202 202 201 199 199 199 196 192 190 186 183 182 181 178 173 170 175 175 170 167 164 170 163 159 153 148 156 151 165 166 161 202 214 221 240 270 278 283 287 288 286 286 287 289 294 294 295 294 292 288 285 279 249 144 139 143 143 127 74 58 91 143 136 160 134 25 14 22 32
184 185 185 186 187 185 183 181 183 186 187 189 193 198 199 201 202 202 200 199 199 198 195 190 188 184 184 184 181 180 177 178 190 188 179 179 173 173 177 180 173 175 185 174 183 165 156 219 231 244 261 279 280 283 283 285 287 288 292 294 296 295 295 292 291 288 283 278 255 218 192 171 168 170 96 53 38 66 155 178 160 52 34 35 43
184 186 186 187 187 185 185 181 183 186 185 189 193 198 199 200 202 201 200 199 198 197 194 190 184 182 184 183 182 184 180 182 200 206 201 196 184 183 194 195 192 200 203 194 193 164 166 228 242 255 266 276 276 282 285 288 291 294 299 301 302 300 300 296 292 288 281 272 253 225 204 184 176 167 102 56 29 0 322 198 206 54 58 53 46
185 187 188 188 188 187 186 182 185 188 186 190 194 197 198 195 199 202 200 198 197 195 191 187 182 182 185 187 190 190 189 191 204 214 213 205 194 186 192 195 194 197 197 191 177 157 190 237 248 258 263 267 271 277 281 287 294 302 308 311 314 314 311 307 299 289 274 255 239 220 206 191 170 131 91 69 48 353 355 335 228 84 94 82 47
186 189 189 189 190 189 188 185 186 189 187 190 194 193 193 192 193 196 194 190 192 192 188 188 189 191 194 197 201 201 205 210 215 220 213 202 194 184 191 194 189 190 185 176 169 180 223 241 247 255 259 262 267 274 282 294 305 321 335 344 348 350 348 344 336 319 259 213 204 200 195 191 168 114 85 75 50 23 34 31 73 129 140 106 62
188 191 191 191 191 191 192 189 188 190 189 191 194 191 192 193 191 191 191 191 195 196 194 197 199 201 203 203 207 208 209 213 218 216 204 198 193 186 191 192 186 184 176 182 200 220 234 232 235 244 255 261 262 281 304 340 2 11 17 20 21 23 22 21 19 33 89 153 167 176 176 179 167 119 82 73 50 50 59 58 78 142 163 114 119
192 192 193 193 193 195 195 194 193 192 191 193 196 195 196 196 195 195 196 198 200 201 200 202 204 205 206 206 209 209 208 210 211 205 198 199 195 189 190 188 180 178 187 209 222 226 228 224 219 216 192 121 102 87 69 52 46 39 33 28 26 30 30 34 39 56 90 131 150 160 164 164 154 126 87 73 61 60 73 71 82 142 156 110 112
198 195 195 196 196 198 199 198 198 196 194 196 198 198 199 200 201 201 201 202 203 203 202 204 206 207 207 207 207 208 211 209 204 199 199 200 194 193 196 191 179 187 211 223 223 219 218 206 181 154 126 111 96 75 60 42 37 31 25 23 19 21 22 26 34 49 83 125 146 153 160 158 143 120 87 78 67 59 63 75 107 154 169 132 108
201 199 198 199 200 201 203 203 203 203 199 200 200 198 201 202 203 203 203 204 205 205 204 205 206 208 206 204 204 207 210 203 198 197 197 196 195 202 209 205 200 209 221 219 211 207 196 173 157 141 123 109 89 63 46 30 22 16 11 11 8 9 10 13 20 29 52 103 145 156 160 157 141 109 82 85 65 50 51 60 174 178 192 204 187
201 202 202 202 204 204 206 206 206 207 204 205 205 202 203 203 204 204 203 205 205 205 206 204 204 205 202 199 200 202 201 196 195 197 196 195 200 209 211 210 210 213 212 204 197 188 174 163 154 145 133 115 98 71 47 29 14 7 1 357 355 354 357 2 8 16 28 69 147 165 164 154 141 110 83 84 60 47 46 49 207 209 215 230 255
203 204 206 206 207 207 208 209 209 209 208 208 208 206 204 204 206 205 202 204 205 204 206 202 200 200 198 197 198 200 197 194 195 194 194 196 203 209 206 204 202 200 197 191 184 174 167 161 155 151 143 130 115 96 67 39 13 359 349 342 340 339 342 346 352 2 15 47 148 170 169 153 139 112 80 73 59 53 44 38 225 238 243 251 265
206 207 208 209 209 210 211 212 213 211 211 211 210 208 205 204 206 204 201 203 205 202 203 201 198 198 197 198 199 200 197 193 193 193 193 197 203 203 197 193 190 189 188 182 175 169 165 162 159 154 144 137 126 115 100 67 352 328 322 321 320 322 326 329 335 343 352 7 156 168 168 159 145 109 74 63 54 56 45 266 254 263 264 271 276
209 210 210 211 211 212 213 213 215 214 213 213 213 209 205 205 204 203 202 203 203 200 200 200 200 199 198 200 202 203 199 195 194 195 197 200 200 195 188 187 186 186 183 177 172 169 166 163 159 154 148 143 140 152 176 233 265 281 285 293 297 303 308 309 315 319 321 317 229 169 158 157 146 100 72 60 49 43 288 265 288 294 284 287 289
211 212 212 213 213 214 214 215 215 214 214 214 214 211 207 207 205 202 202 202 200 200 202 202 201 201 201 202 205 205 203 199 197 200 203 202 198 191 187 186 187 185 181 177 174 172 169 164 160 157 158 162 175 195 217 240 256 269 276 282 290 292 294 296 296 297 296 287 266 203 157 154 143 95 71 60 48 28 285 278 296 314 315 305 298
214 214 214 214 214 215 215 215 215 215 215 214 215 212 208 208 206 202 201 202 200 201 203 203 202 202 203 204 207 208 206 203 202 205 205 202 197 191 188 187 188 185 182 180 177 175 171 168 168 168 173 182 195 208 224 239 252 260 270 277 282 287 289 292 292 292 290 278 265 225 178 161 148 97 66 59 53 50 48 52 44 29 20 3 335
217 217 217 216 215 216 216 216 216 215 215 215 214 213 210 210 208 204 202 203 202 203 205 205 204 204 206 207 209 209 208 207 207 208 206 201 195 192 189 187 188 187 185 183 180 179 177 176 176 179 186 190 199 211 221 231 241 251 259 268 272 278 281 284 285 286 287 280 270 241 197 178 158 111 69 61 60 59 61 62 63 62 58 52 45
221 221 219 217 216 216 217 217 217 216 216 215 214 214 212 212 211 207 205 205 204 205 206 207 207 206 208 210 211 211 210 209 209 208 205 200 195 193 191 191 191 190 190 188 185 183 182 182 184 186 190 192 198 203 209 220 228 236 243 252 259 266 271 274 278 280 280 280 276 261 231 200 173 134 83 67 66 65 68 68 68 69 68 64 61
226 224 222 220 219 218 218 217 217 217 217 217 216 215 213 213 212 209 207 207 206 206 207 209 210 210 210 212 212 212 211 209 209 207 204 201 198 197 197 196 194 194 193 191 188 185 185 187 189 189 188 189 192 194 199 208 214 222 230 237 246 253 262 269 276 279 278 277 272 266 252 226 192 154 100 73 71 70 71 73 73 73 73 72 67
228 227 227 225 222 220 219 218 218 218 218 219 218 217 215 214 213 211 209 208 208 208 209 210 212 213 213 213 213 212 211 210 209 207 204 203 202 201 200 198 196 195 193 189 188 187 188 190 189 188 186 185 187 189 192 197 203 209 215 223 235 245 258 270 280 284 284 282 274 266 253 231 203 167 111 79 78 77 75 77 77 77 78 78 72
230 233 231 228 225 222 220 219 220 219 219 219 219 219 217 217 216 214 212 211 210 210 211 213 214 215 215 215 214 213 211 209 208 207 205 204 204 203 201 198 196 195 191 189 191 191 191 191 189 186 183 183 184 186 186 189 193 193 200 208 224 243 263 282 296 301 301 299 288 274 248 221 198 167 124 89 82 81 80 80 80 80 81 80 76
232 235 232 229 228 225 222 220 221 220 219 219 218 219 219 219 219 217 216 214 213 213 214 215 215 216 217 217 216 215 212 210 208 207 206 205 205 204 201 199 196 194 193 191 193 195 193 191 187 183 181 182 182 183 182 181 183 182 190 201 222 252 281 302 314 319 319 320 312 290 239 202 184 163 139 109 89 84 84 84 82 81 79 78 76
233 235 232 231 231 228 224 222 222 221 220 219 219 220 220 220 219 218 218 217 216 216 216 216 217 217 217 218 217 216 214 212 210 208 207 207 206 204 201 199 197 195 195 194 194 197 195 189 185 183 182 182 181 181 178 177 179 182 191 208 234 270 299 317 324 327 329 331 335 295 188 174 168 158 148 128 101 90 87 85 82 78 75 74 74
236 235 232 233 232 228 226 225 223 222 220 220 220 221 221 220 220 220 219 218 218 217 217 218 218 219 218 218 218 217 216 214 212 209 208 208 206 204 202 200 198 196 197 196 195 196 196 190 185 183 182 182 181 178 176 177 180 185 195 213 239 275 306 323 328 331 337 347 48 132 146 150 154 153 148 133 108 94 89 82 81 79 74 73 74
237 233 234 234 230 228 229 227 224 222 220 220 221 221 221 221 221 220 220 220 219 218 218 219 219 220 220 220 219 218 217 216 215 212 210 209 207 204 202 200 200 198 198 198 197 195 194 191 186 184 183 181 179 177 177 180 184 191 201 222 248 288 315 326 329 333 345 38 120 136 140 138 139 140 139 129 107 94 88 80 79 76 72 72 73
235 234 235 232 228 229 229 227 224 221 220 221 221 221 222 222 221 220 221 221 220 219 219 219 219 220 221 221 220 218 217 216 216 215 212 211 209 206 204 202 201 200 199 199 198 195 192 190 187 184 184 180 179 178 176 180 188 194 202 224 252 287 310 320 322 328 62 130 137 139 141 138 134 132 131 126 112 100 97 91 88 81 72 71 73
237 238 235 231 231 230 227 226 224 222 222 222 222 222 222 222 221 221 221 221 220 220 219 220 220 220 221 220 220 219 217 217 216 216 215 213 211 209 207 204 203 202 200 199 199 198 193 190 187 185 183 180 179 178 176 180 189 196 204 222 243 267 292 299 275 171 146 143 144 143 142 139 135 133 130 129 124 116 114 109 107 99 82 72 73
241 238 235 234 234 230 226 225 224 223 223 223 221 221 222 221 221 222 221 221 220 220 221 221 220 220 220 220 219 218 218 217 216 216 215 214 213 211 208 206 204 202 202 200 200 199 194 190 188 185 182 180 180 178 178 183 189 193 198 213 226 220 199 180 167 151 149 146 144 144 141 139 136 135 133 133 134 129 123 118 120 118 101 83 75
244 237 238 239 235 230 227 225 223 224 222 222 221 220 221 220 221 221 221 221 221 221 221 221 220 220 220 220 219 218 217 217 216 216 215 214 213 211 210 207 205 203 202 202 201 198 193 190 188 185 182 181 181 178 181 186 189 191 193 199 199 172 159 155 149 142 145 145 143 141 137 135 135 135 137 137 138 133 130 127 126 132 127 109 91
247 241 241 239 235 232 228 226 223 223 222 222 221 220 220 220 220 220 221 221 221 221 221 221 221 220 220 220 219 218 217 217 216 216 215 214 213 212 210 208 206 205 203 202 201 197 192 190 189 187 186 183 183 182 183 187 187 185 184 181 166 157 152 146 141 134 137 142 140 137 133 132 134 136 139 140 139 134 133 133 131 137 142 135 120
253 246 242 238 235 233 229 227 225 225 223 221 220 219 219 218 219 219 219 220 220 221 221 220 220 220 220 220 219 218 217 217 216 216 216 215 213 212 211 208 207 205 203 202 200 197 193 191 189 188 189 188 188 186 182 182 183 179 172 163 152 149 148 143 135 128 132 137 135 132 131 129 131 134 136 137 137 135 133 133 135 140 144 142 135
257 250 245 241 238 234 230 229 227 225 223 220 219 218 217 217 218 218 219 220 221 221 221 221 221 220 221 220 219 218 218 218 217 216 216 215 214 212 211 209 207 205 204 202 200 197 194 193 191 189 190 190 191 189 182 178 174 169 155 145 146 146 145 143 136 132 135 136 134 131 129 128 128 129 129 130 130 131 132 131 132 139 143 142 137
258 252 247 244 239 234 231 229 226 223 222 220 217 215 215 215 216 217 218 220 221 220 220 221 221 221 221 220 220 219 219 218 217 217 216 215 214 212 211 209 207 205 203 202 200 198 195 194 193 191 190 189 192 190 180 171 163 154 144 136 138 141 141 141 139 138 141 141 137 134 131 129 128 125 123 123 125 128 127 127 131 135 137 138 137
258 253 247 241 236 232 229 227 224 221 219 215 211 210 210 211 212 213 216 218 219 219 220 221 221 221 221 220 220 219 219 219 218 218 217 216 214 212 211 208 207 206 204 203 201 200 197 194 193 192 191 188 189 186 178 170 150 128 130 134 134 135 135 138 141 142 143 144 143 141 139 135 130 124 120 119 125 132 126 120 124 128 128 130 129
258 251 244 238 235 231 227 224 221 218 214 211 208 207 206 206 207 210 214 216 216 216 218 219 220 221 221 220 220 219 219 219 218 217 217 216 214 212 210 207 207 207 207 207 204 202 199 196 194 193 193 190 185 182 177 169 146 119 121 129 129 131 131 131 137 140 141 146 148 148 147 144 135 121 115 119 128 134 128 117 118 123 123 123 119
259 252 245 241 236 230 227 223 219 215 213 212 209 208 208 207 208 211 214 213 213 214 216 218 218 219 219 218 218 218 218 218 218 217 216 216 214 212 210 209 209 208 208 207 205 203 199 197 195 191 192 190 187 183 175 171 161 147 138 129 126 134 137 134 133 134 136 140 143 141 139 141 136 119 108 115 130 134 131 125 122 125 124 120 116
262 256 250 246 237 229 226 222 218 215 214 212 210 210 211 210 211 214 214 212 214 216 216 217 217 216 217 217 217 217 217 217 217 217 215 215 214 213 212 211 210 209 207 205 205 204 200 198 196 193 190 188 188 186 180 179 176 161 146 132 148 154 167 178 171 164 155 148 146 141 130 126 126 116 103 97 116 136 132 132 132 132 129 123 119
265 259 253 247 239 232 227 222 220 217 214 212 211 211 210 210 212 217 217 214 217 217 216 219 218 216 216 216 216 216 217 217 217 216 215 216 216 215 214 212 211 210 208 206 205 204 202 200 198 195 191 187 186 186 188 189 178 164 147 99 122 156 220 204 186 194 187 173 167 163 146 125 119 115 100 62 87 130 133 135 141 138 133 126 123
270 267 261 252 245 239 232 225 221 217 214 212 210 208 207 206 207 211 212 210 213 212 211 216 217 215 216 215 215 216 216 217 217 217 218 218 218 217 216 214 212 210 209 209 207 206 204 202 199 197 195 193 189 185 191 194 186 180 173 142 135 198 238 157 156 194 202 195 195 196 191 186 140 109 106 57 83 128 134 138 144 140 135 131 129
283 281 274 265 254 246 238 229 222 218 214 211 208 205 204 202 199 198 197 197 202 205 207 211 211 212 214 215 215 216 216 217 217 218 218 218 218 217 216 215 212 210 209 210 209 207 205 203 201 199 199 199 194 187 189 192 192 195 195 189 191 201 161 145 146 191 204 208 219 225 228 226 219 108 120 105 111 136 137 140 146 142 138 136 133
305 299 290 282 267 251 241 232 225 220 215 211 207 205 203 201 200 199 198 198 202 208 212 214 214 213 214 215 215 216 216 216 217 217 217 217 217 217 216 215 214 212 210 209 209 209 208 206 204 202 201 200 198 194 192 190 190 198 203 202 201 192 168 160 168 160 172 214 222 223 224 219 226 174 144 133 135 143 141 145 148 146 144 140 135
328 317 305 297 281 259 243 234 227 221 217 212 208 205 204 203 203 203 204 206 208 213 215 215 217 215 213 215 215 215 215 215 216 216 216 217 217 216 216 215 214 213 211 211 211 211 210 208 205 204 203 202 202 203 200 193 189 192 194 194 194 187 178 175 184 178 153 180 195 206 212 210 217 178 148 128 149 151 147 152 154 152 151 146 141
347 335 325 315 297 270 247 234 228 222 218 214 210 208 207 206 206 206 208 212 213 215 216 214 215 214 213 215 215 215 214 213 215 216 215 216 217 217 216 215 215 214 213 213 214 213 212 210 207 205 205 204 205 209 209 203 198 196 191 186 181 176 177 182 185 180 164 157 174 187 186 184 189 175 156 122 153 159 156 160 162 160 157 154 153
358 349 341 334 323 296 261 241 231 225 221 217 213 211 209 209 209 209 211 213 212 213 214 213 213 213 212 213 215 215 214 213 214 215 215 216 216 216 216 216 216 217 215 215 214 213 213 213 211 208 207 207 206 208 212 211 206 203 199 192 182 172 169 176 185 183 169 149 180 169 174 173 168 178 177 145 156 163 163 166 166 167 167 164 165
5 0 354 348 341 322 287 259 241 232 226 221 217 215 213 212 213 213 214 214 211 209 209 208 208 208 209 211 213 215 216 215 214 214 215 215 215 216 217 217 218 218 217 216 215 215 215 214 213 211 209 208 208 208 210 211 208 205 203 201 197 192 191 195 199 194 182 171 173 141 178 181 173 183 179 152 160 168 167 170 172 174 176 176 177